{"data":{"norad_id":59703,"epoch":"2026-05-24T20:24:32.971968Z","epoch_age_seconds":78233,"freshness":"FRESH","line1":"1 59703U 24086X   26144.85038162 -.00000205  00000+0  20623-5 0  9999","line2":"2 59703  43.0022 349.4650 0001322 268.1593  91.9107 15.27578416115763","mean_motion":15.27578416,"eccentricity":0.0001322,"inclination_deg":43.0022,"raan_deg":349.465,"arg_perigee_deg":268.1593,"mean_anomaly_deg":91.9107,"bstar":2.0623e-6,"rev_number":11576,"period_min":94.266846462172,"perigee_km":482.14678968066,"apogee_km":483.96088853852,"semimajor_km":6861.1908391096,"source":"CELESTRAK","updated_at":"2026-05-25T13:38:19.044634Z"}}